This is the latest recevied weather packets stored in our database for station/object KC5DAQ-22. If no packets are shown the sender has not sent any weather packets the latest 10 day(s).
| Time | Temp. | Humidity | Pressure | Rain* | Wind** | Luminosity | Snow |
|---|---|---|---|---|---|---|---|
| 1777467663 | 25.56° C | 89% | 1010.1 hPa | 0 mm | - | 95 W/m² | - |
| 1777467604 | 25.56° C | 89% | 1010.2 hPa | 0 mm | - | 102 W/m² | - |
| 1777467542 | 25.56° C | 89% | 1010.1 hPa | 0 mm | - | 95 W/m² | - |
| 1777467483 | 25.56° C | 90% | 1010.2 hPa | 0 mm | - | 90 W/m² | - |
| 1777467423 | 25.56° C | 90% | 1010.3 hPa | 0 mm | - | 86 W/m² | - |
| 1777467363 | 25.56° C | 90% | 1010.1 hPa | 0 mm | - | 84 W/m² | - |
| 1777467304 | 25.56° C | 90% | 1010.1 hPa | 0 mm | - | 76 W/m² | - |
| 1777467244 | 25.56° C | 90% | 1010.2 hPa | 0 mm | - | 76 W/m² | - |
| 1777467183 | 25.56° C | 90% | 1010.2 hPa | 0 mm | - | 84 W/m² | - |
| 1777467122 | 25.56° C | 90% | 1010.2 hPa | 0 mm | - | 91 W/m² | - |
| 1777467062 | 25.56° C | 90% | 1010.3 hPa | 0 mm | - | 84 W/m² | - |
| 1777467002 | 25.56° C | 90% | 1010.3 hPa | 0 mm | - | 81 W/m² | - |
| 1777466943 | 25.56° C | 90% | 1010.3 hPa | 0 mm | - | 79 W/m² | - |
| 1777466883 | 25.56° C | 90% | 1010.3 hPa | 0 mm | - | 76 W/m² | - |
| 1777466822 | 25.56° C | 90% | 1010.2 hPa | 0 mm | - | 67 W/m² | - |
| 1777466763 | 25.56° C | 90% | 1010.3 hPa | 0 mm | - | 58 W/m² | - |
| 1777466703 | 25.56° C | 90% | 1010.3 hPa | 0 mm | - | 58 W/m² | - |
| 1777466642 | 25° C | 90% | 1010.3 hPa | 0 mm | - | 58 W/m² | - |
| 1777466584 | 25° C | 90% | 1010.3 hPa | 0 mm | - | 58 W/m² | - |
| 1777466522 | 25° C | 90% | 1010.3 hPa | 0 mm | - | 53 W/m² | - |
| 1777466463 | 25° C | 90% | 1010.3 hPa | 0 mm | - | 49 W/m² | - |
| 1777466402 | 25° C | 90% | 1010.3 hPa | 0 mm | - | 49 W/m² | - |
| 1777466342 | 25° C | 90% | 1010.3 hPa | 0 mm | - | 51 W/m² | - |
| 1777466283 | 25° C | 90% | 1010.3 hPa | 0 mm | - | 53 W/m² | - |
| 1777466221 | 25° C | 90% | 1010.3 hPa | 0 mm | - | 53 W/m² | - |
* Rain latest hour (hover to see other rain measurements)
** Current wind speed in m/s (hover to see current wind gust speed)